Probability
7 5 2 1 1 0 0 0 0 0 0 0 0 0 1 1 1 0 0 0 0 0 0 0 0 0 0 0 0 0 0 0 0 0 0 0 0 0 0 0 0 0 1 1 0 0 1 2 3
7 4 1 0 0 0 0 0 0 0 0 0 0 0 0 0 0 0 0 0 0 0 0 0 0 0 0 0 0 0 0 0 0 0 0 0 0 0 0 0 0 0 1 2 1 1 1 3 3
7 4 2 1 0 0 0 0 0 0 0 0 0 0 0 0 0 0 0 0 0 0 0 0 0 0 0 0 0 0 1 1 0 0 0 0 0 0 0 0 0 0 1 2 2 2 2 3 3
5 5 3 1 0 0 0 0 0 0 0 0 0 0 0 0 0 0 0 0 0 0 0 0 0 0 0 0 0 0 1 1 0 0 0 0 0 0 0 0 0 0 0 1 1 1 2 2 2
6 6 3 1 0 0 0 0 0 0 0 0 0 0 0 0 0 0 0 0 0 0 0 0 0 0 0 0 0 0 0 0 0 0 0 0 0 0 0 0 0 0 0 0 0 0 1 1 1
9 6 2 0 0 0 0 0 0 0 0 0 0 0 0 0 0 0 0 0 0 0 0 0 0 0 0 0 0 0 0 0 0 0 0 0 0 0 0 0 0 0 0 0 0 0 0 0 0
10 6 1 0 0 0 0 0 0 0 0 0 0 0 0 0 0 0 0 0 0 0 0 0 0 0 0 0 0 0 0 0 0 0 0 0 0 0 0 0 0 0 0 0 0 0 0 0 0
8 4 1 0 0 0 0 0 0 0 0 0 0 0 0 0 0 0 0 0 0 0 0 0 0 0 0 0 0 0 0 0 0 0 0 0 0 0 0 0 0 0 0 0 0 0 0 0 0
3 2 0 0 0 0 0 0 0 0 0 0 0 0 0 0 0 0 0 0 0 0 0 0 0 0 0 0 0 0 0 0 0 0 0 0 0 0 0 0 0 0 0 0 0 0 0 0 0
2 1 1 0 0 0 0 0 0 0 0 0 0 0 0 0 0 0 0 0 0 0 0 0 0 0 0 0 0 0 0 0 0 0 0 0 0 0 0 0 0 0 0 0 0 1 0 0 0
3 3 2 1 0 0 0 0 0 0 0 0 0 0 0 0 0 0 0 0 0 0 0 0 0 0 0 0 0 0 0 0 0 0 0 0 0 0 0 0 0 0 0 0 0 0 0 0 0
4 3 2 1 1 0 0 0 0 0 0 0 0 0 0 0 0 0 0 0 0 0 0 0 0 0 0 0 0 0 0 0 0 0 0 0 0 0 0 0 0 0 0 0 0 0 0 0 0
3 3 2 1 1 0 1 1 0 0 0 0 0 0 0 0 0 0 0 0 0 0 0 0 0 0 0 0 0 0 0 0 0 0 0 0 0 0 0 0 0 0 0 0 0 0 0 0 0
1 1 1 0 0 0 2 2 1 0 0 0 0 0 0 0 0 0 0 0 0 0 0 0 0 0 0 0 0 0 0 0 0 0 0 0 0 0 0 0 0 0 0 0 0 0 0 0 0
0 0 0 0 0 0 1 1 0 0 0 0 0 0 0 0 0 0 0 0 0 0 0 0 0 0 0 0 0 0 0 0 0 0 0 0 0 0 0 0 0 0 0 0 0 0 0 0 0
0 0 0 0 0 0 0 0 0 0 0 0 0 0 0 0 0 0 0 0 0 0 0 0 0 0 0 0 0 0 0 0 0 0 0 0 0 0 0 0 0 0 0 0 0 0 0 0 0
0 0 0 0 0 0 0 0 0 0 0 0 1 0 0 0 0 0 0 0 0 0 0 0 0 0 0 0 0 0 0 0 0 0 0 0 0 0 0 0 0 0 0 0 0 0 0 0 0
0 0 0 0 0 0 0 0 0 0 0 0 0 0 0 0 0 0 0 0 0 0 0 0 0 0 0 0 0 0 0 0 0 0 0 0 0 0 0 0 0 0 0 0 0 0 0 0 0
0 0 0 0 0 0 0 0 0 0 0 0 0 0 0 0 0 0 0 0 0 0 0 0 0 0 0 0 0 0 0 0 0 0 0 0 0 0 0 0 0 0 0 0 0 0 0 0 0
0 0 0 0 0 0 0 0 0 0 0 0 0 0 0 0 0 0 0 0 0 0 0 0 0 0 0 0 0 0 0 0 0 0 0 0 0 0 0 0 0 0 0 0 0 0 0 0 0
0 0 0 0 0 0 0 0 0 0 0 0 0 0 0 0 0 0 0 0 0 0 0 0 0 0 0 0 0 0 0 0 0 0 0 0 0 0 0 0 0 0 0 0 0 0 0 0 0
0 0 0 0 0 0 0 0 0 0 0 0 0 0 0 0 0 0 0 0 0 0 0 0 0 0 0 0 0 0 0 0 0 0 0 0 0 0 0 0 0 0 0 0 0 0 0 0 0
0 0 0 0 0 0 0 0 0 0 0 0 0 0 0 0 0 0 0 0 0 0 0 0 0 0 0 0 0 0 0 0 0 0 0 0 0 0 0 0 0 0 0 0 0 0 0 0 0
0 0 0 0 0 0 0 0 0 0 0 0 0 0 0 0 0 0 0 0 0 0 0 0 0 0 0 0 0 0 0 0 0 0 0 0 0 0 0 0 0 0 0 0 0 0 0 0 0
0 0 0 0 0 0 0 0 0 0 0 0 0 1 0 0 0 0 0 1 1 2 1 0 0 0 0 0 0 0 0 0 0 0 0 0 0 0 0 0 0 0 0 0 0 0 0 0 0
0 0 0 0 0 0 0 0 0 0 0 0 0 1 0 0 0 0 1 2 3 4 3 1 0 0 0 0 0 0 0 0 0 0 0 0 0 0 0 0 0 0 0 0 0 0 0 0 0
0 0 0 0 0 0 0 0 0 0 0 0 0 1 0 0 0 0 2 3 4 4 3 1 0 0 0 0 0 0 0 0 0 0 0 0 0 0 1 1 1 0 0 0 0 0 0 0 0
0 0 0 0 0 0 0 0 0 0 0 0 0 0 0 0 0 0 1 2 3 3 2 1 0 0 0 0 0 0 0 0 0 0 0 0 0 0 1 1 1 0 0 0 0 0 0 0 0
0 0 0 0 0 0 0 0 0 0 0 0 0 0 0 0 0 0 1 2 2 3 2 2 1 1 0 0 0 0 0 0 0 0 0 0 0 0 0 0 0 0 0 0 0 0 0 0 0
0 0 0 0 0 0 0 0 0 0 0 0 0 0 0 0 0 0 0 1 3 3 2 2 2 2 1 0 0 0 0 0 0 0 0 0 0 0 0 0 0 0 0 0 0 0 0 0 0
Wind_Speed
10 9 5 2 2 1 3 4 6 7 7 9 11 12 13 14 10 10 3 8 12 12 11 12 13 14 14 13 13 13 12 12 12 12 12 11 11 10 10 10 9 9 9 9 9 9 9 9 8
10 7 3 2 2 1 4 6 9 8 7 8 11 13 13 12 12 9 5 8 12 13 11 12 14 14 14 14 13 13 13 12 12 12 11 11 10 10 10 9 9 9 9 9 9 8 8 8 7
11 7 3 1 1 2 5 7 8 7 7 8 10 11 10 8 9 6 7 11 13 13 12 12 14 14 14 13 13 13 13 12 11 11 10 10 10 9 9 8 8 8 8 8 8 8 7 7 7
5 3 2 0 4 7 7 7 7 7 7 9 11 11 10 8 8 8 10 13 14 13 12 11 14 14 13 13 13 12 12 11 11 10 9 9 9 9 8 8 8 8 8 8 8 7 7 7 7
3 2 1 2 6 7 7 7 7 8 8 12 14 13 11 10 10 10 9 13 13 13 12 11 13 13 13 12 12 11 11 10 10 9 8 8 8 8 8 8 8 8 8 8 7 7 7 7 6
2 2 1 3 6 7 7 8 9 11 12 13 14 13 9 9 9 8 9 10 12 12 12 11 12 12 12 11 11 10 9 9 8 7 6 6 5 6 7 8 8 8 7 7 7 7 7 6 6
3 2 1 5 6 6 7 7 8 9 10 9 11 12 10 8 6 7 9 9 9 10 10 9 9 10 11 11 10 9 7 6 6 4 3 2 2 4 5 7 8 7 7 6 5 5 5 5 5
2 2 1 4 6 6 7 9 9 10 8 8 9 10 9 9 7 8 8 7 7 7 7 8 8 9 8 7 8 7 6 5 3 1 0 1 1 2 3 6 6 5 5 4 3 4 4 5 5
3 1 1 3 5 6 8 9 9 9 9 11 13 14 13 12 10 8 7 7 6 6 5 6 5 5 6 6 7 6 5 3 3 3 2 2 1 2 2 5 3 1 2 3 4 5 6 6 6
1 1 3 3 5 8 8 10 9 10 12 15 15 14 13 11 10 8 8 7 6 5 5 5 5 5 4 4 4 2 2 2 1 1 1 1 1 2 3 3 2 2 3 4 6 8 8 6 3
0 3 4 6 7 9 9 9 9 10 10 13 15 14 11 10 8 8 8 7 6 5 4 4 5 6 5 3 3 1 1 1 2 3 4 3 3 1 2 1 1 2 1 2 3 4 3 1 1
3 5 7 7 6 8 9 9 9 9 11 14 13 12 10 9 8 8 9 8 6 5 4 4 5 6 6 4 2 2 2 2 3 3 4 3 2 3 2 2 3 2 1 2 3 2 3 4 4
5 5 8 8 7 9 11 10 10 11 13 13 12 10 8 9 8 8 9 8 7 5 4 5 6 6 5 3 2 4 3 2 3 2 3 4 3 3 2 2 2 3 3 3 3 3 4 3 4
5 8 9 8 8 9 11 9 9 10 11 12 10 8 8 7 8 8 7 8 7 5 5 5 5 4 4 3 3 3 3 3 3 3 3 4 3 3 3 3 3 3 2 2 3 3 3 2 2
7 9 8 6 7 7 9 9 8 8 10 11 10 8 8 7 7 7 7 7 7 6 6 4 4 5 5 5 4 4 3 3 3 3 4 4 4 4 4 4 3 3 3 4 3 4 4 3 3
5 5 5 5 6 5 5 7 7 7 8 8 8 8 6 6 7 7 6 7 6 6 6 3 4 6 5 4 4 3 4 4 3 4 5 6 6 5 4 3 3 3 3 3 3 3 3 3 3
3 4 6 5 4 4 5 7 8 6 7 7 7 7 7 7 7 7 5 6 5 6 5 4 4 5 4 3 3 4 3 3 4 4 4 5 6 6 4 3 4 4 3 4 4 4 3 3 3
4 4 6 5 3 4 5 6 8 7 6 6 7 7 8 8 7 6 6 5 4 5 6 5 3 4 3 2 4 3 3 3 3 3 4 5 5 6 4 3 5 5 4 4 4 4 4 3 3
4 5 5 4 4 5 5 7 8 7 5 5 5 7 8 9 8 6 5 4 4 4 6 5 4 4 3 2 2 2 2 3 3 3 4 4 5 5 4 4 4 5 4 4 5 4 4 3 3
4 6 7 4 4 4 5 5 6 7 7 6 5 6 8 9 8 6 5 3 3 4 4 4 4 4 4 2 2 2 2 3 3 3 4 5 5 6 5 5 4 4 4 5 5 4 4 3 4
4 5 6 6 5 4 4 3 6 8 6 5 4 5 7 9 9 8 6 4 3 4 4 4 4 5 4 3 2 2 2 2 2 3 2 4 5 5 5 5 4 4 4 4 4 5 5 4 4
3 4 5 7 6 4 6 3 6 10 8 8 7 6 6 7 7 7 6 6 5 4 3 4 3 5 4 4 2 2 2 2 2 2 2 3 4 4 5 5 5 5 4 4 5 5 4 4 4
3 4 5 5 4 3 6 3 5 10 11 11 11 9 8 8 8 7 7 6 6 5 4 4 4 5 4 4 3 2 3 2 2 2 3 3 3 3 4 4 4 4 3 4 4 5 5 4 4
4 4 3 4 3 4 7 5 4 8 12 13 12 11 10 9 8 8 7 6 6 5 4 4 5 5 3 3 3 3 3 3 3 3 2 1 1 2 3 4 4 4 3 3 3 4 4 4 5
6 4 2 2 3 3 4 4 4 8 10 11 12 12 10 10 9 8 8 7 7 6 5 5 5 4 3 3 3 4 2 3 2 2 1 1 2 2 3 4 3 3 3 3 3 3 3 4 4
6 5 1 1 2 2 5 3 3 7 7 8 10 11 11 10 9 9 9 7 7 7 6 5 5 4 3 3 3 3 3 1 2 1 1 2 2 2 2 2 3 3 3 4 3 3 3 4 4
4 5 4 3 5 3 4 4 5 7 7 7 9 10 10 10 10 9 9 8 8 7 6 6 6 5 4 3 3 2 3 2 2 1 2 2 2 1 2 1 2 2 3 3 3 3 3 4 3
6 5 4 3 2 2 2 4 6 9 9 8 8 9 9 10 10 10 9 9 8 7 6 6 6 6 4 3 3 3 3 3 2 2 3 2 2 1 1 1 2 3 3 3 3 2 2 3 2
8 7 5 3 3 2 1 1 3 11 10 10 9 9 9 10 10 9 8 8 8 7 7 6 6 5 5 4 3 3 3 3 3 2 2 1 2 1 1 1 2 3 2 3 3 2 3 3 3
6 6 5 3 3 3 1 1 3 8 9 10 9 9 9 9 9 9 9 8 8 8 7 7 6 5 5 4 4 4 4 4 4 4 3 2 2 1 0 1 2 2 2 2 2 2 2 2 3
Wind_Direction
289 271 256 270 267 231 60 61 70 66 61 57 61 72 68 54 66 91 111 97 97 95 96 89 85 84 83 83 82 80 79 78 77 74 72 69 67 64 62 60 57 53 50 47 44 42 39 36 33
288 286 275 248 269 91 75 67 73 70 82 86 73 75 73 70 77 93 101 96 97 94 89 88 86 84 83 83 82 81 79 77 75 73 71 68 65 61 58 56 54 50 46 42 39 37 34 30 28
273 269 266 269 327 70 87 82 88 83 70 81 79 64 60 70 77 94 112 101 96 93 91 91 88 86 84 83 81 79 77 74 73 70 66 62 58 55 53 51 49 47 41 37 35 32 29 27 23
276 262 241 71 71 73 94 103 105 95 80 81 87 71 67 69 92 116 116 104 99 97 96 94 92 89 86 84 81 78 75 72 70 67 62 57 53 51 48 45 42 40 38 34 32 29 27 23 17
256 264 250 109 86 81 88 100 98 84 77 77 84 90 85 80 98 109 107 106 105 104 104 103 98 94 90 86 82 77 72 69 65 62 58 55 53 51 47 44 40 35 34 33 31 24 22 17 10
276 257 202 116 101 90 85 91 90 89 92 96 98 99 93 97 98 98 94 99 106 112 113 113 108 102 94 88 83 79 73 69 66 61 57 54 55 55 51 45 40 35 31 29 27 20 15 10 3
279 278 185 123 112 97 91 89 88 93 92 92 105 103 107 106 110 103 98 98 104 112 120 125 127 116 106 99 93 88 84 81 77 72 63 52 57 67 67 59 44 37 30 24 16 6 358 351 341
295 306 133 123 115 103 98 88 86 90 92 104 111 111 124 131 126 110 109 109 109 113 119 128 134 136 134 126 118 118 114 109 115 120 249 280 238 131 101 77 56 35 22 11 353 331 317 309 301
290 346 83 95 109 115 113 107 100 95 92 80 86 107 124 131 128 126 120 110 109 113 120 120 122 122 127 134 132 149 150 154 175 203 244 259 234 163 126 85 94 35 338 316 300 291 287 284 275
227 107 98 98 110 117 114 110 111 108 99 96 99 109 129 139 141 138 131 121 116 120 126 132 128 121 105 93 118 143 121 140 163 69 76 21 51 45 69 123 198 237 266 285 275 277 279 263 252
109 108 104 94 100 115 112 105 104 113 110 116 124 133 144 147 138 129 115 109 110 104 97 112 113 109 108 91 89 78 79 82 46 25 54 32 20 42 69 156 222 248 259 308 293 276 279 298 263
86 92 102 106 107 108 106 103 97 99 114 126 131 142 148 142 130 123 116 115 107 98 94 84 91 91 84 79 90 77 54 56 46 16 39 43 17 16 14 48 356 7 18 345 337 337 356 3 5
95 105 102 101 97 98 104 104 103 106 114 123 131 139 137 129 127 117 116 120 112 107 88 70 69 78 87 74 51 79 57 41 64 20 33 44 28 17 8 49 17 15 3 359 344 1 1 10 11
113 114 110 109 106 104 107 105 105 113 125 130 133 130 120 117 116 116 120 114 113 109 91 76 75 78 86 88 75 66 80 72 49 12 33 49 37 25 19 38 28 5 356 356 356 8 356 20 26
128 118 109 111 115 114 114 105 113 127 131 134 133 124 115 115 113 114 116 118 117 113 101 89 87 72 61 55 54 69 55 59 51 20 10 41 43 35 28 18 21 2 4 13 7 9 4 26 28
142 130 123 129 133 137 125 126 133 141 140 136 130 122 121 121 122 112 112 114 115 108 102 94 89 84 70 58 42 56 52 50 48 33 10 19 34 38 30 13 3 14 12 2 11 17 8 20 22
172 154 141 134 145 146 139 139 148 161 152 146 140 142 142 138 124 115 110 108 108 109 113 102 79 91 89 94 80 55 64 56 53 42 19 15 20 28 31 10 4 20 20 6 15 21 9 3 360
161 153 142 135 152 135 136 144 159 171 171 158 157 158 152 141 125 114 103 100 104 109 107 99 81 85 93 74 80 64 45 54 56 52 31 21 19 20 19 29 18 18 22 12 14 13 11 356 353
150 135 127 133 143 130 141 158 174 174 182 175 179 170 157 143 134 126 123 132 127 115 112 117 114 94 83 59 65 72 68 63 51 51 32 34 29 16 25 29 25 27 25 21 21 11 7 359 0
145 136 133 134 153 142 157 182 188 185 194 193 191 175 160 150 149 145 144 141 130 115 114 119 107 95 92 84 83 88 86 90 84 57 34 30 37 16 23 33 34 36 28 25 22 19 9 358 15
163 155 143 150 153 165 165 202 202 194 195 191 201 190 169 165 163 160 160 152 139 126 127 119 125 120 113 105 79 69 66 64 78 77 58 38 42 25 14 21 31 33 36 26 24 26 22 10 8
135 138 157 166 165 186 192 194 204 192 187 190 204 199 178 173 166 160 164 161 152 140 130 125 116 107 108 106 81 98 97 84 75 81 89 72 50 39 19 20 31 39 34 27 28 31 21 28 11
136 154 173 192 196 208 205 202 207 189 190 194 197 194 182 174 171 168 167 160 148 142 133 118 104 89 83 90 78 62 71 86 79 73 70 71 57 47 32 27 34 38 34 31 36 35 32 31 25
147 157 191 225 231 238 216 204 201 191 192 187 186 184 182 176 170 165 156 145 136 128 120 104 96 90 88 103 108 93 88 86 85 74 70 86 82 57 48 46 39 36 31 32 31 43 44 37 32
194 192 195 200 220 236 213 218 202 186 181 179 179 178 180 172 169 163 155 151 139 137 136 130 125 129 140 138 124 113 103 102 98 100 79 68 74 53 49 57 52 38 27 39 33 40 47 51 46
208 217 233 285 246 223 195 211 151 146 155 168 171 171 173 171 169 164 158 152 145 147 153 147 140 144 152 153 131 127 127 109 100 81 87 76 76 67 59 67 67 55 37 36 39 36 38 46 48
217 222 205 254 269 236 189 155 131 137 148 158 165 167 172 171 164 160 156 154 153 157 159 155 152 155 162 152 132 124 120 107 115 123 87 78 89 74 47 83 89 81 70 50 41 45 41 43 36
247 255 241 240 284 286 210 177 167 165 165 166 168 171 169 167 164 160 157 158 160 161 163 166 160 156 159 159 157 132 125 120 117 105 94 89 87 67 337 36 92 81 80 74 52 37 34 49 42
214 235 242 263 265 282 335 39 141 165 169 174 178 175 167 163 162 161 159 160 160 157 162 164 159 158 162 161 146 143 150 147 148 126 125 142 135 186 205 59 88 84 79 86 72 38 33 36 28
245 248 249 271 286 281 263 137 133 152 164 171 175 173 168 163 160 158 158 158 159 163 169 167 167 161 161 163 158 162 157 162 167 158 169 177 156 181 204 130 101 90 74 70 77 51 40 37 28